Location: ???????
(55.7027°N, 37.3832°E)
Time: 10:37:15
(UTC+00:00)

Cosmos 1733 Rocket - Pass Details

Date: 14 April 2026
Orbit: 597 x 620 km, 82.5° (Epoch: 19 May)

Event Time Altitude Azimuth Distance (km) Brightness Sun altitude
Exits shadow 19:20:42 - 218° (SW) 2,352 5.9 -19.3°
Reaches altitude 10° 19:21:43 10° 223° (SW) 1,969 5.5 -19.4°
Maximum altitude 19:25:46 37° 291° (WNW) 968 4.5 -19.7°
Drops below altitude 10° 19:29:53 10° 360° (N) 1,995 6.5 -20.0°
Sets 19:32:16 0° 9° (N) 2,908 7.3 -20.2°
